Location: DaltonSkyGazer Observatory
(42.4858°N, 73.1565°W)
Time: 11:55:08
(UTC-05:00)

Daily predictions for brighter satellites

Satellite Brightness Start Highest point End
(mag) Time Altitude Azimuth Time Altitude Azimuth Time Altitude Azimuth
Cosmos 2219 4.2 17:58:15 10° SSE 18:02:56 27° ESE 18:07:38 10° NE
BREEZE-M DEB (TANK) 3.6 18:04:00 10° NW 18:06:35 38° NNE 18:12:14 10° E
Cosmos 1954 Rocket 4.0 18:01:49 10° S 18:06:57 67° ESE 18:12:10 10° NNE
Cosmos 1536 3.9 18:04:40 10° SE 18:07:51 23° E 18:11:02 10° NE
Cosmos 2181 Rocket 4.2 18:02:04 10° N 18:08:11 52° ENE 18:14:21 10° SSE
Okean 1 3.5 18:06:33 10° N 18:10:38 84° W 18:14:41 10° S
Cosmos 1709 Rocket 3.9 18:12:46 10° S 18:18:58 74° E 18:25:06 10° NNE
Okean 1 Rocket 3.3 18:19:52 10° SSE 18:24:09 47° E 18:28:27 10° NNE
Cosmos 1602 3.6 18:23:24 10° S 18:27:16 74° E 18:31:11 10° NNE
Meteor 1-11 Rocket 3.8 18:23:08 10° S 18:28:51 65° E 18:34:44 10° NNE
Cosmos 2151 Rocket 4.4 18:24:27 10° SSW 18:28:52 56° W 18:33:20 10° N
Cosmos 1833 4.4 18:25:41 10° SSW 18:31:23 79° WNW 18:37:04 10° NNE
Cosmos 1340 3.0 18:28:10 10° NNW 18:31:57 70° W 18:35:42 10° S
Cosmos 1025 Rocket 3.6 18:30:29 10° N 18:34:33 36° ENE 18:38:36 10° SE
ALOS 2.4 18:30:47 10° SSE 18:35:18 52° ENE 18:39:51 10° N
SL-16 R/B 4.4 18:30:50 10° NW 18:35:37 29° WSW 18:40:23 10° SSW
Cosmos 1023 Rocket 4.5 18:30:49 10° SSW 18:35:54 87° WNW 18:41:05 10° NNE
Cosmos 2333 Rocket 3.2 18:33:18 10° N 18:38:14 28° NE 18:41:50 16° ESE
FENGYUN 3A 3.6 18:44:22 10° SSE 18:49:44 72° ENE 18:55:09 10° N
Abrixas rocket 2.4 18:48:14 10° SW 18:51:32 57° SSE 18:52:57 30° E
FREGAT/IRIS 3.5 18:50:14 10° S 18:53:15 52° W 18:56:18 10° NNW
Cosmos 1741 Rocket 3.9 18:48:18 10° SSW 18:53:31 81° ESE 18:58:46 10° NNE
NOSS 0 Rocket 4.4 18:48:35 10° NNW 18:54:20 39° NE 18:58:02 20° ESE
Cosmos 2285 Rocket 4.1 18:48:16 10° NNW 18:54:37 56° ENE 19:00:53 10° SE
Genesis I 3.6 18:51:52 10° NW 18:55:46 66° WSW 18:59:39 10° SSE
GEOS 3 Rocket 3.9 18:51:20 10° NE 18:56:23 47° ESE 19:01:27 10° SSW
Okean 1-7 Rocket 3.5 18:52:27 10° N 18:57:01 84° E 19:01:29 10° S
GPS 2-04 Rocket1 4.1 18:56:34 10° SW 19:00:18 30° S 19:01:59 23° SE
FengYun 1-2 T 4.2 18:58:18 10° SSE 19:03:47 89° WSW 19:09:20 10° NNW
Meteor 1-5 Rocket 4.3 18:58:02 10° S 19:03:55 66° E 19:09:46 10° NNE
Intercosmos 24 4.4 19:04:45 10° S 19:09:07 77° E 19:15:35 10° N
Cosmos 1570 Rocket 4.4 19:05:30 10° NNW 19:10:42 66° WSW 19:15:52 10° S
SJ-6B 4.4 19:10:25 10° SSW 19:14:06 36° W 19:17:45 10° NNW
ATLAS CENTAUR R/B 2.8 19:11:56 10° SSW 19:14:33 24° SSE 19:14:33 24° SSE
Cosmos 405 Rocket 2.7 19:18:46 10° N 19:22:50 64° ENE 19:23:33 53° SE
Cosmos 468 Rocket 4.0 19:18:00 10° NNW 19:23:13 62° ENE 19:25:21 35° SE
USA 229 DEB 3.8 19:17:11 10° NW 19:24:21 88° WSW 19:29:53 19° SSE
USA 229 3.8 19:17:16 10° NW 19:24:27 88° WSW 19:29:56 19° SSE
Helios 1A 2.8 19:23:44 41° SE 19:25:04 69° ENE 19:29:14 10° N
CZ-2D R/B 3.1 19:23:59 26° SSE 19:26:04 87° WSW 19:29:55 10° NNW
Okean 2 3.3 19:22:08 10° N 19:26:20 89° W 19:29:22 18° S
Cosmos 2237 Rocket 2.5 19:21:33 10° NNW 19:27:05 47° ENE 19:28:14 42° E
H-2A R/B 3.1 19:23:43 10° S 19:27:23 60° W 19:31:07 10° NNW
Spot 2 Rocket 3.8 19:22:24 10° S 19:27:25 67° WSW 19:32:30 10° NNW
Cosmos 2333 4.5 19:21:55 10° NNW 19:27:38 69° WSW 19:33:21 10° SSE
COSMOS 2428 3.2 19:22:47 10° NNW 19:28:22 59° WSW 19:33:56 10° S
Gbstr 26 Del rocket 3.7 19:24:51 10° W 19:28:25 40° NNW 19:29:29 32° NNE
Helios 1B rocket 2.3 19:25:02 10° NNE 19:29:09 64° E 19:33:16 10° S
Cosmos 2297 Rocket 3.9 19:24:58 10° SSE 19:26:19 16° SSE 19:26:19 16° SSE
Resurs 01 Rocket 2.6 19:32:01 10° S 19:36:15 47° W 19:40:32 10° NNW
NOSS 3-1 (A) 4.3 19:29:42 10° NNW 19:36:55 48° NE 19:39:19 38° E
Atlas Centaur 2 4.4 19:35:57 10° S 19:38:25 13° SSE 19:38:25 13° SSE
Cosmos 1610 Rocket 4.4 19:34:10 10° S 19:40:24 88° W 19:46:36 10° N
Cosmos 2219 Rocket 2.1 19:35:16 10° NNW 19:40:54 83° WSW 19:43:37 32° SSE
ATLAS 2AS CENTAUR R/B 4.3 19:35:28 10° NNW 19:41:49 24° NNE 19:43:50 22° NE
Cosmos 1814 Rocket 3.8 19:37:56 10° NNW 19:43:06 69° ENE 19:43:32 65° ESE
ERS-1 Rocket 4.2 19:45:15 27° NNE 19:45:15 27° NNE 19:47:58 10° N
Envisat 3.0 19:44:07 57° ENE 19:44:07 57° ENE 19:48:51 10° N
USA 32 4.4 19:41:07 10° N 19:45:18 47° NE 19:45:18 47° NE
Cosmos 2219 4.2 19:41:17 10° SW 19:46:48 47° WNW 19:52:21 10° NNE
Cosmos 2227 Rocket 2.2 19:44:26 10° S 19:49:27 59° SE 19:49:27 59° SE
NOSS 3-1 (C) 4.0 19:47:59 10° NNW 19:55:32 72° NE 19:57:53 50° ESE
SL-16 R/B 3.1 19:56:45 10° NNW 20:00:38 34° NNE 20:00:38 34° NNE
Cosmos 2333 Rocket 3.0 20:17:13 10° NW 20:22:43 47° WSW 20:23:54 41° SW
Cosmos 1980 4.2 20:20:30 10° NNW 20:26:01 55° WSW 20:26:08 55° WSW
Cosmos 841 Rocket 4.5 20:21:15 10° NNW 20:24:31 40° NNW 20:24:31 40° NNW
Cosmos 2341 Rocket 4.5 20:30:49 10° SSW 20:37:04 59° W 20:43:23 10° N
Cosmos 2237 Rocket 4.1 21:06:13 10° NW 21:10:06 25° W 21:10:06 25° W
ATLAS 2AS CENTAUR R/B 4.0 21:26:22 10° NNW 21:31:17 40° NNW 21:31:17 40° NNW
